TimeCST,TemperatureF,Dew PointF,Humidity,Sea Level PressureIn,VisibilityMPH,Wind Direction,Wind SpeedMPH,Gust SpeedMPH,PrecipitationIn,Events,Conditions,WindDirDegrees,DateUTC
12:53 AM,25.0,18.0,75,30.38,10.0,NNW,4.6,-,N/A,,Clear,330,2013-03-02 06:53:00
1:53 AM,25.0,19.0,78,30.39,10.0,NW,4.6,-,N/A,,Clear,310,2013-03-02 07:53:00
2:53 AM,23.0,19.0,85,30.38,10.0,NW,5.8,-,N/A,,Clear,320,2013-03-02 08:53:00
3:53 AM,24.1,19.0,81,30.38,10.0,NNW,6.9,-,N/A,,Clear,330,2013-03-02 09:53:00
4:53 AM,23.0,18.0,81,30.38,10.0,NNW,5.8,-,N/A,,Clear,330,2013-03-02 10:53:00
5:53 AM,21.9,17.1,82,30.40,10.0,NW,8.1,-,N/A,,Clear,320,2013-03-02 11:53:00
6:53 AM,21.0,17.1,85,30.41,10.0,North,5.8,-,N/A,,Clear,350,2013-03-02 12:53:00
7:53 AM,24.1,18.0,77,30.41,10.0,North,6.9,-,N/A,,Clear,350,2013-03-02 13:53:00
8:53 AM,28.0,19.9,72,30.42,10.0,North,8.1,-,N/A,,Clear,10,2013-03-02 14:53:00
9:53 AM,32.0,21.0,64,30.41,10.0,NNE,3.5,-,N/A,,Clear,20,2013-03-02 15:53:00
10:53 AM,34.0,19.9,56,30.40,10.0,Calm,Calm,-,N/A,,Clear,0,2013-03-02 16:53:00
11:53 AM,36.0,21.0,55,30.38,10.0,Variable,4.6,-,N/A,,Clear,0,2013-03-02 17:53:00
12:53 PM,39.9,19.9,45,30.35,10.0,WNW,5.8,-,N/A,,Clear,290,2013-03-02 18:53:00
1:53 PM,42.1,21.0,43,30.31,10.0,Calm,Calm,-,N/A,,Clear,0,2013-03-02 19:53:00
2:53 PM,45.0,21.0,39,30.30,10.0,NW,5.8,-,N/A,,Clear,320,2013-03-02 20:53:00
3:53 PM,46.0,23.0,40,30.28,10.0,Calm,Calm,-,N/A,,Clear,0,2013-03-02 21:53:00
4:53 PM,46.0,24.1,42,30.26,10.0,Calm,Calm,-,N/A,,Clear,0,2013-03-02 22:53:00
5:53 PM,45.0,25.0,46,30.25,10.0,SW,3.5,-,N/A,,Clear,220,2013-03-02 23:53:00
6:53 PM,41.0,26.1,55,30.25,10.0,SSE,3.5,-,N/A,,Clear,150,2013-03-03 00:53:00
7:53 PM,39.9,26.1,58,30.24,10.0,SSE,5.8,-,N/A,,Clear,150,2013-03-03 01:53:00
8:53 PM,37.9,25.0,60,30.23,10.0,South,3.5,-,N/A,,Clear,170,2013-03-03 02:53:00
9:53 PM,36.0,26.1,67,30.22,10.0,SSE,3.5,-,N/A,,Clear,150,2013-03-03 03:53:00
10:53 PM,35.1,26.1,70,30.19,10.0,SSE,6.9,-,N/A,,Clear,150,2013-03-03 04:53:00
11:53 PM,35.1,25.0,67,30.17,10.0,SSE,6.9,-,N/A,,Clear,150,2013-03-03 05:53:00